📊 Raw Sensor Data

Showing records 39326 to 39350 of 84,944 total

ID Distance (ft) Battery V Battery A Int Temp (°F) Int Humid (%) Ext Temp (°F) Solar V RSSI SNR Time Stamp
45631 15.7 3.88 7 98 44 89 5.10 -74 8 07/07/2025 04:00 PM
45630 15.7 3.88 0 97 44 89 5.10 -72 8 07/07/2025 03:30 PM
45629 15.7 3.90 6 96 43 89 5.10 -73 7 07/07/2025 03:15 PM
45628 15.7 3.88 0 96 43 89 5.10 -72 8 07/07/2025 03:00 PM
45627 15.7 3.88 0 95 42 86 5.10 -73 8 07/07/2025 02:45 PM
45626 15.7 3.88 0 95 42 88 5.10 -72 7 07/07/2025 02:30 PM
45625 15.7 3.88 0 93 41 86 5.10 -73 8 07/07/2025 02:15 PM
45624 15.7 3.88 7 92 41 87 5.10 -72 8 07/07/2025 02:00 PM
45623 15.7 4.10 7 90 42 83 5.10 -72 8 07/07/2025 01:45 PM
45622 15.7 3.88 5 89 42 81 5.10 -71 7 07/07/2025 01:30 PM
45621 15.6 3.90 6 87 42 83 5.10 -72 8 07/07/2025 01:15 PM
45620 15.7 3.88 0 86 43 80 5.10 -71 8 07/07/2025 01:00 PM
45619 15.7 4.07 7 84 43 79 5.10 -72 7 07/07/2025 12:45 PM
45618 15.7 3.88 0 83 43 81 5.10 -72 7 07/07/2025 12:30 PM
45617 15.7 3.86 0 82 43 80 5.10 -71 7 07/07/2025 12:15 PM
45616 15.7 3.88 0 81 43 80 5.10 -71 7 07/07/2025 12:00 PM
45615 15.7 4.09 7 80 43 81 5.10 -72 7 07/07/2025 11:45 AM
45614 15.8 3.88 6 80 43 78 5.10 -72 7 07/07/2025 11:30 AM
45613 15.7 4.06 8 78 43 80 5.10 -72 8 07/07/2025 11:15 AM
45612 15.8 3.91 7 78 43 80 5.10 -73 8 07/07/2025 11:00 AM
45611 15.8 3.89 0 78 42 80 5.10 -72 8 07/07/2025 10:45 AM
45610 15.8 3.91 0 76 42 78 5.10 -72 8 07/07/2025 10:30 AM
45609 15.8 4.07 8 74 43 76 5.10 -70 8 07/07/2025 10:15 AM
45608 15.8 3.88 8 73 43 74 5.10 -70 7 07/07/2025 10:00 AM
45607 15.7 3.88 7 72 44 75 5.10 -73 8 07/07/2025 09:45 AM